User: anonymous   Login
Location: Lancaster
(34.6980°N, 118.1360°W)
Time: 03:56:39
(UTC-08:00)
Language:

N. Korean satellite - Orbit

View from above orbital plane
View from above orbital plane
View from above satellite
View from above satellite

Ground track
Ground track

The orbit data is extracted from the following two-line orbital elements,

1 39026U 12072A   17321.93742922 +.00002745 +00000-0 +10692-3 0  9993
2 39026 097.2173 334.5274 0039805 355.1004 004.9840 15.26079148273372
Epoch (UTC): 17 November 2017 22:29:53
Eccentricity: 0.0039805
inclination: 97.2173°
perigee height: 460 km
apogee height: 515 km
right ascension of ascending node: 334.5274°
argument of perigee: 355.1004°
revolutions per day: 15.26079148
mean anomaly at epoch: 4.9840°
orbit number at epoch: 27337

The dashed part of the orbit path shows where the satellite is in the earth's shadow,  

DLR